Weather History for Adana, Turkey

Change the Weather History Date:

Wednesday, November 6, 2013

  Actual Average Record
Temperature  
Mean Temperature 66 °F -  
Max Temperature 78 °F 68 °F 86 °F (2003)
Min Temperature 55 °F 47 °F 39 °F (2006)
Cooling Degree Days 2    
Growing Degree Days 16 (Base 50)    
Moisture  
Dew Point 46 °F    
Average Humidity 49    
Maximum Humidity 72    
Minimum Humidity 28    
Precipitation  
Precipitation 0.00 in 0.11 in - ()
Sea Level Pressure  
Sea Level Pressure 29.98 in    
Wind  
Wind Speed 3 mph ()    
Max Wind Speed 9 mph    
Max Gust Speed -    
Visibility 6.2 miles    
Events      
Averages and records for this station are not official NWS values.
T = Trace of Precipitation, MM = Missing Value Source: Averaged Metar Reports

Daily Weather History Graph

Daily Weather History Graph

Search for Another Location

Airport:

Trip Planner

Search our weather history database for the weather conditions in past years. The results will help you decide how hot, cold, wet, or windy it might be!

Date:

Astronomy

Nov. 06, 2013 Rise Set
Actual Time 6:07 AM EET 4:36 PM EET
Civil Twilight 5:40 AM EET 5:03 PM EET
Nautical Twilight 5:09 AM EET 5:34 PM EET
Astronomical Twilight 4:39 AM EET 6:04 PM EET
Moon 9:00 AM EET (11/6) 7:20 PM EET (11/6)
Length of Visible Light 11h 22m
Length of Day
10h 28m
Waxing Crescent, 11% of the Moon is Illuminated
Nov 6
Waxing Crescent
Nov 10
First Quarter
Nov 17
Full
Nov 25
Last Quarter
Dec 3
New

Hourly Weather History & Observations

Time (EET) Temp. Dew Point Humidity Pressure Visibility Wind Dir Wind Speed Gust Speed Precip Events Conditions
12:20 AM 62.6 °F 44.6 °F 52% 30.01 in 6.2 mi Variable 2.3 mph - N/A   Scattered Clouds
12:50 AM 60.8 °F 46.4 °F 59% 30.01 in 6.2 mi Calm Calm - N/A   Scattered Clouds
1:20 AM 59.0 °F 46.4 °F 63% 30.01 in 6.2 mi NW 1.2 mph - N/A   Scattered Clouds
1:50 AM 59.0 °F 46.4 °F 63% 30.01 in 6.2 mi Variable 1.2 mph - N/A   Scattered Clouds
2:20 AM 57.2 °F 48.2 °F 72% 30.01 in 6.2 mi Calm Calm - N/A   Scattered Clouds
2:50 AM 57.2 °F 48.2 °F 72% 30.01 in 6.2 mi Variable 1.2 mph - N/A   Partly Cloudy
3:20 AM 57.2 °F 46.4 °F 67% 29.98 in 6.2 mi Calm Calm - N/A   Partly Cloudy
3:50 AM 57.2 °F 46.4 °F 67% 30.01 in 6.2 mi Variable 2.3 mph - N/A   Partly Cloudy
4:20 AM 57.2 °F 46.4 °F 67% 30.01 in 6.2 mi NW 1.2 mph - N/A   Partly Cloudy
4:50 AM 55.4 °F 46.4 °F 72% 30.01 in 6.2 mi NNE 1.2 mph - N/A   Scattered Clouds
5:20 AM 55.4 °F 46.4 °F 72% 30.01 in 6.2 mi Calm Calm - N/A   Scattered Clouds
5:50 AM 55.4 °F 46.4 °F 72% 30.01 in 6.2 mi Calm Calm - N/A   Scattered Clouds
6:20 AM 55.4 °F 46.4 °F 72% 30.01 in 6.2 mi NE 4.6 mph - N/A   Scattered Clouds
6:50 AM 57.2 °F 46.4 °F 67% 30.01 in 6.2 mi Variable 2.3 mph - N/A   Scattered Clouds
7:20 AM 62.6 °F 48.2 °F 59% 30.01 in 6.2 mi Calm Calm - N/A   Scattered Clouds
7:50 AM 64.4 °F 50.0 °F 59% 30.04 in 6.2 mi Variable 1.2 mph - N/A   Scattered Clouds
8:20 AM 69.8 °F 44.6 °F 40% 30.04 in 6.2 mi NNE 6.9 mph - N/A   Mostly Cloudy
8:50 AM 71.6 °F 42.8 °F 35% 30.04 in 6.2 mi NNE 8.1 mph - N/A   Mostly Cloudy
9:20 AM 73.4 °F 42.8 °F 33% 30.01 in 6.2 mi NNE 9.2 mph - N/A   Scattered Clouds
9:50 AM 73.4 °F 44.6 °F 36% 30.01 in 6.2 mi NE 8.1 mph - N/A   Scattered Clouds
10:20 AM 75.2 °F 46.4 °F 36% 30.01 in 6.2 mi NE 6.9 mph - N/A   Mostly Cloudy
10:50 AM 77.0 °F 44.6 °F 32% 30.01 in 6.2 mi NE 8.1 mph - N/A   Mostly Cloudy
11:20 AM 77.0 °F 44.6 °F 32% 29.98 in 6.2 mi NNE 5.8 mph - N/A   Mostly Cloudy
11:50 AM 78.8 °F 42.8 °F 28% 29.98 in 6.2 mi ENE 5.8 mph - N/A   Mostly Cloudy
12:20 PM 78.8 °F 42.8 °F 28% 29.98 in 6.2 mi ENE 6.9 mph - N/A   Mostly Cloudy
12:50 PM 78.8 °F 42.8 °F 28% 29.95 in 6.2 mi ENE 5.8 mph - N/A   Mostly Cloudy
1:20 PM 78.8 °F 42.8 °F 28% 29.95 in 6.2 mi ENE 5.8 mph - N/A   Mostly Cloudy
1:50 PM 78.8 °F 42.8 °F 28% 29.95 in 6.2 mi NNE 6.9 mph - N/A   Mostly Cloudy
2:20 PM 78.8 °F 44.6 °F 30% 29.95 in 6.2 mi NE 4.6 mph - N/A   Mostly Cloudy
2:50 PM 78.8 °F 44.6 °F 30% 29.95 in 6.2 mi NNE 4.6 mph - N/A   Mostly Cloudy
3:20 PM 77.0 °F 46.4 °F 34% 29.95 in 6.2 mi ENE 4.6 mph - N/A   Mostly Cloudy
3:50 PM 77.0 °F 48.2 °F 36% 29.92 in 6.2 mi Variable 2.3 mph - N/A   Mostly Cloudy
4:20 PM 75.2 °F 46.4 °F 36% 29.92 in 6.2 mi Calm Calm - N/A   Mostly Cloudy
4:50 PM 73.4 °F 48.2 °F 41% 29.95 in 6.2 mi Calm Calm - N/A   Mostly Cloudy
5:20 PM 69.8 °F 50.0 °F 49% 29.95 in 6.2 mi SE 1.2 mph - N/A   Mostly Cloudy
5:50 PM 68.0 °F 50.0 °F 52% 29.95 in 6.2 mi Variable 2.3 mph - N/A   Mostly Cloudy
6:20 PM 68.0 °F 50.0 °F 52% 29.95 in 6.2 mi North 3.5 mph - N/A   Scattered Clouds
6:50 PM 66.2 °F 50.0 °F 56% 29.95 in 6.2 mi ENE 3.5 mph - N/A   Scattered Clouds
7:20 PM 66.2 °F 50.0 °F 56% 29.95 in 6.2 mi NNE 3.5 mph - N/A   Scattered Clouds
7:50 PM 68.0 °F 48.2 °F 49% 29.95 in 6.2 mi NNE 4.6 mph - N/A   Scattered Clouds
8:20 PM 68.0 °F 48.2 °F 49% 29.95 in 6.2 mi Variable 2.3 mph - N/A   Scattered Clouds
8:50 PM 66.2 °F 48.2 °F 52% 29.95 in 6.2 mi NNE 4.6 mph - N/A   Scattered Clouds
9:20 PM 68.0 °F 46.4 °F 46% 29.95 in 6.2 mi North 4.6 mph - N/A   Scattered Clouds
9:50 PM 66.2 °F 46.4 °F 49% 29.92 in 6.2 mi NNE 4.6 mph - N/A   Scattered Clouds
10:20 PM 68.0 °F 44.6 °F 43% 29.92 in 6.2 mi North 5.8 mph - N/A   Scattered Clouds
10:50 PM 66.2 °F 46.4 °F 49% 29.92 in 6.2 mi Variable 2.3 mph - N/A   Scattered Clouds
11:20 PM 66.2 °F 46.4 °F 49% 29.92 in 6.2 mi NNE 4.6 mph - N/A   Scattered Clouds
11:50 PM 64.4 °F 44.6 °F 49% 29.92 in 6.2 mi Variable 2.3 mph - N/A   Scattered Clouds